KAR810 URSS-UNOO

Flight info

Callsign KAR810
Flight time N/A
Altitude 35000
Route IRGID1S/24 IRGID A944 BEMES R227 ITAKA DCT RIBMO P574 OGANU N55 DAKIN N990 ALODA ALODA6B/25
Aircraft B739/M-SDE2E3FGHIRWXY/LB1

Departure

Time N/A
Airport Sochi International Airport (URSS)

Arrival

Time 2026-04-24 22:01
Airport Omsk Central Airport (UNOO)
Time Latitude Longitude Altitude Speed Heading
2026-04-24 18:54 43.93275 42.03168 32616 ft 527 kts 90°
2026-04-24 18:55 43.93592 42.13329 33079 ft 528 kts 90°
2026-04-24 18:55 43.93746 42.18356 33306 ft 528 kts 90°
2026-04-24 18:55 43.93901 42.23523 33537 ft 528 kts 90°
2026-04-24 18:56 43.94052 42.28613 33739 ft 529 kts 90°
2026-04-24 18:56 43.94199 42.33646 33936 ft 529 kts 90°
2026-04-24 18:56 43.94348 42.38809 34170 ft 528 kts 90°
2026-04-24 18:56 43.94492 42.43888 34429 ft 526 kts 90°
2026-04-24 18:57 43.94632 42.48887 34689 ft 523 kts 90°
2026-04-24 18:57 43.94771 42.53937 34904 ft 522 kts 90°
2026-04-24 18:57 43.94907 42.58977 34951 ft 524 kts 90°
2026-04-24 18:58 43.95109 42.69104 34957 ft 525 kts 92°
2026-04-24 18:58 43.95140 42.79224 34961 ft 523 kts 92°
2026-04-24 18:59 43.95141 42.89320 34955 ft 522 kts 92°
2026-04-24 18:59 43.95158 42.99390 34957 ft 521 kts 92°
2026-04-24 19:00 43.95181 43.09427 34965 ft 520 kts 92°
2026-04-24 19:00 43.95198 43.19402 34959 ft 520 kts 92°
2026-04-24 19:01 43.95206 43.29441 34959 ft 520 kts 93°
2026-04-24 19:01 43.95203 43.39484 34953 ft 520 kts 93°
2026-04-24 19:02 43.95194 43.47842 34953 ft 521 kts 93°
2026-04-24 19:02 43.95171 43.59614 34956 ft 522 kts 93°
2026-04-24 19:03 43.95141 43.69713 34954 ft 523 kts 93°
2026-04-24 19:03 43.95103 43.79809 34946 ft 524 kts 93°
2026-04-24 19:04 43.95056 43.89917 34951 ft 524 kts 94°
2026-04-24 19:04 43.95000 44.00033 34942 ft 524 kts 94°
2026-04-24 19:05 43.94936 44.10153 34952 ft 524 kts 94°
2026-04-24 19:05 43.94862 44.20207 34958 ft 523 kts 94°
2026-04-24 19:06 43.94780 44.30305 34957 ft 523 kts 94°
2026-04-24 19:06 43.94688 44.40392 34961 ft 523 kts 94°
2026-04-24 19:07 43.94588 44.50478 34965 ft 522 kts 94°
2026-04-24 19:07 43.94498 44.58846 34964 ft 522 kts 94°
2026-04-24 19:08 43.94361 44.70604 34967 ft 521 kts 94°
2026-04-24 19:08 43.94235 44.80663 34970 ft 521 kts 94°
2026-04-24 19:09 43.94100 44.90703 34971 ft 521 kts 95°
2026-04-24 19:09 43.93956 45.00696 34971 ft 521 kts 95°
2026-04-24 19:10 43.93803 45.10760 34976 ft 521 kts 95°
2026-04-24 19:10 43.93641 45.20819 34977 ft 521 kts 95°
2026-04-24 19:11 43.93471 45.30890 34978 ft 522 kts 95°
2026-04-24 19:11 43.93291 45.40960 34966 ft 522 kts 95°
2026-04-24 19:12 43.93103 45.51031 34969 ft 522 kts 95°
2026-04-24 19:12 43.92906 45.61093 34968 ft 522 kts 95°
2026-04-24 19:13 43.92735 45.69469 34972 ft 521 kts 95°
2026-04-24 19:13 43.92487 45.81172 34968 ft 521 kts 95°
2026-04-24 19:14 43.92211 45.91198 34965 ft 518 kts 99°
2026-04-24 19:14 43.91253 46.01066 34969 ft 515 kts 103°
2026-04-24 19:15 43.90118 46.10817 34966 ft 514 kts 103°
2026-04-24 19:15 43.89026 46.20610 34969 ft 514 kts 103°
2026-04-24 19:16 43.87453 46.35293 34970 ft 513 kts 103°
2026-04-24 19:16 43.86397 46.45071 34969 ft 512 kts 103°
2026-04-24 19:17 43.85332 46.54821 34973 ft 512 kts 103°
2026-04-24 19:17 43.84264 46.64522 34971 ft 511 kts 103°
2026-04-24 19:18 43.83453 46.74387 34960 ft 517 kts 93°
2026-04-24 19:18 43.83685 46.84278 34966 ft 518 kts 90°
2026-04-24 19:19 43.84019 46.94256 34976 ft 518 kts 91°
2026-04-24 19:19 43.84300 47.04229 34975 ft 518 kts 91°
2026-04-24 19:20 43.84531 47.14200 34976 ft 518 kts 91°
2026-04-24 19:20 43.84742 47.24182 34973 ft 519 kts 92°
2026-04-24 19:21 43.84945 47.34186 34973 ft 519 kts 92°
2026-04-24 19:21 43.85143 47.44195 34977 ft 520 kts 92°
2026-04-24 19:22 43.85334 47.54215 34974 ft 521 kts 92°
2026-04-24 19:22 43.85515 47.64191 34977 ft 521 kts 92°
2026-04-24 19:23 43.85689 47.74251 34978 ft 522 kts 92°
2026-04-24 19:23 43.85854 47.84336 34973 ft 523 kts 92°
2026-04-24 19:24 43.86011 47.94423 34976 ft 523 kts 92°
2026-04-24 19:24 43.86158 48.04449 34978 ft 524 kts 92°
2026-04-24 19:25 43.86275 48.12921 34976 ft 524 kts 93°
2026-04-24 19:25 43.86427 48.24664 34970 ft 524 kts 93°
2026-04-24 19:26 43.86548 48.34775 34972 ft 524 kts 93°
2026-04-24 19:26 43.86642 48.43188 34973 ft 524 kts 93°
2026-04-24 19:27 43.86747 48.53302 34974 ft 524 kts 93°
2026-04-24 19:27 43.86843 48.63407 34967 ft 524 kts 93°
2026-04-24 19:28 43.86930 48.73514 34969 ft 524 kts 94°
2026-04-24 19:28 43.87008 48.83636 34965 ft 524 kts 94°
2026-04-24 19:29 43.87108 48.98713 34960 ft 524 kts 94°
2026-04-24 19:30 43.87164 49.08826 34960 ft 524 kts 94°
2026-04-24 19:30 43.87211 49.18930 34963 ft 524 kts 94°
2026-04-24 19:31 43.87249 49.29041 34960 ft 524 kts 94°
2026-04-24 19:31 43.87279 49.39096 34962 ft 524 kts 94°
2026-04-24 19:32 43.87415 49.49216 34945 ft 528 kts 88°
2026-04-24 19:32 43.87997 49.54252 34945 ft 532 kts 77°
2026-04-24 19:32 43.88972 49.59200 34971 ft 532 kts 76°
2026-04-24 19:33 43.91062 49.69056 34951 ft 532 kts 75°
2026-04-24 19:33 43.93127 49.78920 34950 ft 532 kts 76°
2026-04-24 19:34 43.95127 49.88817 34950 ft 532 kts 76°
2026-04-24 19:34 43.97093 49.98728 34947 ft 532 kts 77°
2026-04-24 19:35 43.99048 50.08637 34945 ft 532 kts 77°
2026-04-24 19:35 44.00985 50.18485 34937 ft 532 kts 77°
2026-04-24 19:36 44.02927 50.28397 34939 ft 531 kts 77°
2026-04-24 19:36 44.04860 50.38310 34939 ft 531 kts 77°
2026-04-24 19:37 44.06784 50.48232 34929 ft 531 kts 77°
2026-04-24 19:37 44.08697 50.58145 34935 ft 530 kts 77°
2026-04-24 19:38 44.10603 50.68072 34922 ft 530 kts 77°
2026-04-24 19:38 44.12483 50.77919 34931 ft 530 kts 77°
2026-04-24 19:39 44.14369 50.87842 34931 ft 529 kts 77°
2026-04-24 19:39 44.16243 50.97759 34923 ft 530 kts 77°
2026-04-24 19:40 44.18110 51.07690 34926 ft 530 kts 78°
2026-04-24 19:40 44.19967 51.17620 34926 ft 530 kts 78°
2026-04-24 19:41 44.21817 51.27561 34917 ft 529 kts 78°
2026-04-24 19:41 44.23659 51.37515 34917 ft 529 kts 78°
2026-04-24 19:42 44.25489 51.47454 34917 ft 529 kts 78°
2026-04-24 19:42 44.27310 51.57398 34923 ft 529 kts 78°
2026-04-24 19:43 44.29122 51.67347 34927 ft 529 kts 78°
2026-04-24 19:43 44.30913 51.77236 34919 ft 528 kts 78°
2026-04-24 19:44 44.32706 51.87188 34925 ft 528 kts 78°
2026-04-24 19:44 44.34490 51.97147 34928 ft 528 kts 78°
2026-04-24 19:45 44.36267 52.07111 34921 ft 529 kts 78°
2026-04-24 19:45 44.38604 52.16850 34920 ft 530 kts 64°
2026-04-24 19:46 44.42510 52.25564 34931 ft 528 kts 54°
2026-04-24 19:46 44.46691 52.33959 34920 ft 529 kts 54°
2026-04-24 19:47 44.50852 52.42456 34924 ft 529 kts 54°
2026-04-24 19:47 44.54960 52.51009 34920 ft 529 kts 55°
2026-04-24 19:48 44.59056 52.59599 34920 ft 529 kts 55°
2026-04-24 19:48 44.65187 52.72483 34917 ft 529 kts 55°
2026-04-24 19:49 44.73348 52.89708 34915 ft 529 kts 55°
2026-04-24 19:50 44.81453 53.06919 34916 ft 529 kts 56°
2026-04-24 19:51 44.87532 53.19900 34917 ft 528 kts 56°
2026-04-24 19:52 44.93585 53.32904 34911 ft 528 kts 56°
2026-04-24 19:52 44.97603 53.41567 34913 ft 527 kts 56°
2026-04-24 19:53 45.01586 53.50179 34909 ft 527 kts 56°
2026-04-24 19:54 45.07591 53.63212 34909 ft 526 kts 56°
2026-04-24 19:54 45.11580 53.71904 34909 ft 526 kts 56°
2026-04-24 19:55 45.14883 53.79123 34907 ft 525 kts 57°
2026-04-24 19:55 45.19495 53.89229 34910 ft 525 kts 57°
2026-04-24 19:56 45.23469 53.97957 34905 ft 525 kts 57°
2026-04-24 19:56 45.27434 54.06662 34904 ft 525 kts 57°
2026-04-24 19:57 45.31372 54.15334 34901 ft 525 kts 57°
2026-04-24 19:57 45.35322 54.24062 34901 ft 525 kts 57°
2026-04-24 19:58 45.39262 54.32799 34902 ft 525 kts 57°
2026-04-24 19:58 45.43201 54.41560 34897 ft 524 kts 57°
2026-04-24 19:59 45.47123 54.50312 34893 ft 524 kts 57°
2026-04-24 19:59 45.51039 54.59075 34896 ft 524 kts 57°
2026-04-24 20:00 45.54947 54.67848 34888 ft 524 kts 58°
2026-04-24 20:00 45.58826 54.76595 34889 ft 524 kts 58°
2026-04-24 20:01 45.62713 54.85397 34885 ft 523 kts 58°
2026-04-24 20:01 45.66591 54.94204 34883 ft 523 kts 58°
2026-04-24 20:02 45.69807 55.01527 34880 ft 522 kts 58°
2026-04-24 20:02 45.74315 55.11825 34881 ft 521 kts 58°
2026-04-24 20:03 45.78131 55.20571 34886 ft 520 kts 58°
2026-04-24 20:03 45.81957 55.29367 34880 ft 520 kts 59°
2026-04-24 20:04 45.85777 55.38177 34879 ft 519 kts 59°
2026-04-24 20:04 45.89579 55.46974 34875 ft 518 kts 59°
2026-04-24 20:05 45.93351 55.55729 34877 ft 518 kts 59°
2026-04-24 20:05 45.97131 55.64530 34898 ft 517 kts 59°
2026-04-24 20:06 46.00914 55.73366 34883 ft 518 kts 59°
2026-04-24 20:06 46.04681 55.82190 34883 ft 517 kts 59°
2026-04-24 20:07 46.07811 55.89546 34880 ft 517 kts 60°
2026-04-24 20:07 46.12184 55.99855 34879 ft 517 kts 60°
2026-04-24 20:08 46.15934 56.08725 34880 ft 517 kts 60°
2026-04-24 20:08 46.19679 56.17614 34889 ft 517 kts 60°
2026-04-24 20:09 46.23394 56.26456 34873 ft 518 kts 60°
2026-04-24 20:09 46.27125 56.35369 34887 ft 518 kts 60°
2026-04-24 20:10 46.30855 56.44305 34878 ft 517 kts 60°
2026-04-24 20:10 46.34570 56.53235 34871 ft 517 kts 60°
2026-04-24 20:11 46.38249 56.62109 34876 ft 516 kts 60°
2026-04-24 20:11 46.41946 56.71054 34870 ft 516 kts 61°
2026-04-24 20:12 46.45633 56.80003 34871 ft 516 kts 61°
2026-04-24 20:12 46.48828 56.87330 34855 ft 516 kts 53°
2026-04-24 20:13 46.54465 56.96267 34867 ft 516 kts 45°
2026-04-24 20:13 46.58638 57.02496 34861 ft 516 kts 46°
2026-04-24 20:14 46.63619 57.10043 34865 ft 515 kts 46°
2026-04-24 20:14 46.68510 57.17582 34866 ft 515 kts 47°
2026-04-24 20:15 46.73417 57.25204 34866 ft 515 kts 47°
2026-04-24 20:15 46.78320 57.32837 34859 ft 515 kts 47°
2026-04-24 20:16 46.83219 57.40479 34859 ft 515 kts 47°
2026-04-24 20:16 46.88092 57.48099 34860 ft 515 kts 47°
2026-04-24 20:17 46.92986 57.55774 34857 ft 515 kts 47°
2026-04-24 20:17 47.00286 57.67265 34855 ft 515 kts 47°
2026-04-24 20:18 47.05160 57.74965 34852 ft 515 kts 47°
2026-04-24 20:18 47.10022 57.82668 34849 ft 514 kts 47°
2026-04-24 20:19 47.14886 57.90396 34856 ft 514 kts 47°
2026-04-24 20:19 47.19740 57.98132 34849 ft 514 kts 47°
2026-04-24 20:20 47.24552 58.05823 34848 ft 513 kts 48°
2026-04-24 20:20 47.29382 58.13563 34851 ft 513 kts 48°
2026-04-24 20:21 47.34176 58.21358 34848 ft 512 kts 49°
2026-04-24 20:21 47.38916 58.29197 34853 ft 511 kts 49°
2026-04-24 20:22 47.43647 58.37047 34853 ft 510 kts 49°
2026-04-24 20:22 47.48342 58.44842 34847 ft 510 kts 49°
2026-04-24 20:23 47.53049 58.52669 34849 ft 509 kts 49°
2026-04-24 20:23 47.57758 58.60521 34846 ft 508 kts 49°
2026-04-24 20:24 47.62415 58.68310 34852 ft 507 kts 49°
2026-04-24 20:24 47.67087 58.76147 34846 ft 507 kts 49°
2026-04-24 20:25 47.71760 58.84010 34843 ft 506 kts 49°
2026-04-24 20:25 47.76411 58.91859 34849 ft 506 kts 49°
2026-04-24 20:26 47.81033 58.99681 34840 ft 506 kts 49°
2026-04-24 20:26 47.85673 59.07558 34840 ft 506 kts 49°
2026-04-24 20:27 47.90313 59.15457 34834 ft 506 kts 49°
2026-04-24 20:27 47.94953 59.23380 34836 ft 506 kts 49°
2026-04-24 20:28 47.99570 59.31287 34841 ft 507 kts 49°
2026-04-24 20:28 48.04201 59.39241 34848 ft 508 kts 49°
2026-04-24 20:29 48.08836 59.47228 34846 ft 508 kts 49°
2026-04-24 20:29 48.13470 59.55235 34845 ft 508 kts 50°
2026-04-24 20:30 48.18073 59.63213 34841 ft 508 kts 50°
2026-04-24 20:30 48.22696 59.71249 34838 ft 508 kts 50°
2026-04-24 20:31 48.27305 59.79285 34840 ft 508 kts 50°
2026-04-24 20:31 48.31904 59.87329 34836 ft 507 kts 50°
2026-04-24 20:32 48.36479 59.95355 34837 ft 507 kts 49°
2026-04-24 20:32 48.41064 60.03422 34833 ft 507 kts 50°
2026-04-24 20:33 48.45649 60.11514 34832 ft 507 kts 50°
2026-04-24 20:33 48.50201 60.19572 34829 ft 508 kts 50°
2026-04-24 20:34 48.54774 60.27693 34832 ft 508 kts 50°
2026-04-24 20:34 48.59347 60.35837 34826 ft 508 kts 50°
2026-04-24 20:35 48.63905 60.43980 34828 ft 508 kts 50°
2026-04-24 20:35 48.68453 60.52131 34827 ft 508 kts 50°
2026-04-24 20:36 48.73009 60.60320 34823 ft 508 kts 50°
2026-04-24 20:36 48.77564 60.68534 34828 ft 508 kts 50°
2026-04-24 20:37 48.82101 60.76740 34833 ft 508 kts 50°
2026-04-24 20:37 48.86638 60.84971 34820 ft 508 kts 50°
2026-04-24 20:38 48.91165 60.93210 34824 ft 507 kts 50°
2026-04-24 20:38 48.95657 61.01412 34826 ft 507 kts 50°
2026-04-24 20:39 49.00175 61.09686 34825 ft 506 kts 50°
2026-04-24 20:39 49.04673 61.17949 34825 ft 506 kts 50°
2026-04-24 20:40 49.09134 61.26169 34821 ft 505 kts 50°
2026-04-24 20:40 49.13615 61.34451 34822 ft 505 kts 50°
2026-04-24 20:41 49.18079 61.42731 34816 ft 505 kts 50°
2026-04-24 20:41 49.22546 61.51038 34817 ft 505 kts 50°
2026-04-24 20:42 49.26712 61.58812 34818 ft 505 kts 50°
2026-04-24 20:42 49.31161 61.67137 34818 ft 505 kts 50°
2026-04-24 20:43 49.35608 61.75487 34815 ft 505 kts 51°
2026-04-24 20:43 49.40039 61.83832 34813 ft 505 kts 51°
2026-04-24 20:44 49.44472 61.92209 34811 ft 504 kts 51°
2026-04-24 20:44 49.48891 62.00584 34809 ft 504 kts 51°
2026-04-24 20:45 49.53274 62.08917 34811 ft 504 kts 51°
2026-04-24 20:45 49.57684 62.17329 34813 ft 504 kts 51°
2026-04-24 20:46 49.62076 62.25734 34809 ft 503 kts 51°
2026-04-24 20:46 49.66450 62.34132 34813 ft 503 kts 51°
2026-04-24 20:47 49.70832 62.42570 34805 ft 503 kts 51°
2026-04-24 20:47 49.75219 62.50993 34808 ft 503 kts 49°
2026-04-24 20:48 49.80258 62.58513 34813 ft 502 kts 41°
2026-04-24 20:48 49.85448 62.65661 34810 ft 502 kts 41°
2026-04-24 20:49 49.90638 62.72934 34804 ft 502 kts 41°
2026-04-24 20:49 49.95766 62.80236 34806 ft 502 kts 41°
2026-04-24 20:50 50.00917 62.87597 34800 ft 502 kts 41°
2026-04-24 20:50 50.05949 62.95130 34793 ft 502 kts 50°
2026-04-24 20:51 50.10266 63.03607 34800 ft 502 kts 52°
2026-04-24 20:51 50.14523 63.12297 34802 ft 502 kts 52°
2026-04-24 20:52 50.18794 63.20941 34797 ft 503 kts 52°
2026-04-24 20:52 50.23064 63.29511 34802 ft 503 kts 52°
2026-04-24 20:53 50.27372 63.38159 34804 ft 503 kts 52°
2026-04-24 20:53 50.31637 63.46752 34798 ft 503 kts 52°
2026-04-24 20:54 50.35925 63.55427 34796 ft 503 kts 52°
2026-04-24 20:54 50.40210 63.64126 34803 ft 503 kts 52°
2026-04-24 20:55 50.44456 63.72774 34800 ft 503 kts 52°
2026-04-24 20:55 50.48728 63.81504 34806 ft 503 kts 52°
2026-04-24 20:56 50.52992 63.90246 34800 ft 503 kts 52°
2026-04-24 20:56 50.57212 63.98928 34801 ft 503 kts 52°
2026-04-24 20:57 50.61449 64.07674 34803 ft 502 kts 52°
2026-04-24 20:57 50.65684 64.16445 34807 ft 502 kts 52°
2026-04-24 20:58 50.69902 64.25210 34803 ft 502 kts 52°
2026-04-24 20:58 50.74119 64.34003 34803 ft 502 kts 52°
2026-04-24 20:59 50.78322 64.42795 34804 ft 501 kts 52°
2026-04-24 20:59 50.82527 64.51513 34802 ft 501 kts 51°
2026-04-24 21:00 50.86789 64.60251 34805 ft 501 kts 52°
2026-04-24 21:00 50.90981 64.69093 34808 ft 501 kts 52°
2026-04-24 21:01 50.95116 64.77891 34809 ft 501 kts 52°
2026-04-24 21:01 50.99286 64.86765 34810 ft 501 kts 52°
2026-04-24 21:02 51.03455 64.95651 34814 ft 500 kts 52°
2026-04-24 21:02 51.07585 65.04476 34818 ft 500 kts 52°
2026-04-24 21:03 51.11741 65.13387 34816 ft 500 kts 52°
2026-04-24 21:03 51.15883 65.22302 34817 ft 500 kts 53°
2026-04-24 21:04 51.19990 65.31171 34827 ft 499 kts 53°
2026-04-24 21:04 51.24105 65.40087 34820 ft 499 kts 53°
2026-04-24 21:05 51.28215 65.49024 34826 ft 498 kts 53°
2026-04-24 21:05 51.32311 65.57962 34835 ft 498 kts 53°
2026-04-24 21:06 51.36371 65.66851 34824 ft 498 kts 53°
2026-04-24 21:06 51.40447 65.75805 34830 ft 497 kts 53°
2026-04-24 21:07 51.44512 65.84766 34833 ft 496 kts 53°
2026-04-24 21:07 51.48565 65.93732 34832 ft 496 kts 53°
2026-04-24 21:08 51.52614 66.02721 34835 ft 496 kts 53°
2026-04-24 21:08 51.56624 66.11652 34844 ft 496 kts 53°
2026-04-24 21:09 51.60658 66.20670 34849 ft 496 kts 53°
2026-04-24 21:09 51.64687 66.29708 34848 ft 496 kts 53°
2026-04-24 21:10 51.68702 66.38747 34854 ft 496 kts 53°
2026-04-24 21:10 51.72695 66.47765 34852 ft 496 kts 53°
2026-04-24 21:11 51.76702 66.56849 34852 ft 496 kts 53°
2026-04-24 21:11 51.80680 66.65900 34856 ft 496 kts 53°
2026-04-24 21:12 51.83995 66.73464 34856 ft 495 kts 53°
2026-04-24 21:12 51.88644 66.84113 34855 ft 494 kts 54°
2026-04-24 21:13 51.92602 66.93213 34857 ft 493 kts 54°
2026-04-24 21:13 51.96523 67.02257 34863 ft 493 kts 54°
2026-04-24 21:14 52.00448 67.11346 34864 ft 492 kts 54°
2026-04-24 21:14 52.04361 67.20438 34868 ft 491 kts 54°
2026-04-24 21:15 52.08267 67.29547 34864 ft 490 kts 54°
2026-04-24 21:15 52.12155 67.38646 34868 ft 489 kts 54°
2026-04-24 21:16 52.16033 67.47755 34866 ft 489 kts 54°
2026-04-24 21:16 52.19876 67.56807 34870 ft 488 kts 54°
2026-04-24 21:17 52.23828 67.65836 34879 ft 488 kts 53°
2026-04-24 21:17 52.27151 67.73280 34879 ft 488 kts 53°
2026-04-24 21:18 52.31788 67.83715 34879 ft 488 kts 53°
2026-04-24 21:18 52.35757 67.92729 34879 ft 487 kts 53°
2026-04-24 21:19 52.39707 68.01749 34885 ft 487 kts 53°
2026-04-24 21:19 52.43624 68.10731 34884 ft 487 kts 53°
2026-04-24 21:20 52.49518 68.24299 34888 ft 486 kts 53°
2026-04-24 21:21 52.53434 68.33354 34894 ft 486 kts 54°
2026-04-24 21:21 52.56684 68.40892 34896 ft 486 kts 54°
2026-04-24 21:22 52.60584 68.49969 34895 ft 485 kts 54°
2026-04-24 21:22 52.64475 68.59057 34900 ft 485 kts 54°
2026-04-24 21:23 52.68355 68.68152 34892 ft 485 kts 54°
2026-04-24 21:23 52.72231 68.77267 34895 ft 485 kts 54°
2026-04-24 21:24 52.76094 68.86387 34899 ft 484 kts 54°
2026-04-24 21:24 52.79925 68.95462 34899 ft 484 kts 54°
2026-04-24 21:25 52.83772 69.04610 34896 ft 485 kts 54°
2026-04-24 21:25 52.87615 69.13780 34897 ft 484 kts 54°
2026-04-24 21:26 52.91449 69.22963 34897 ft 484 kts 54°
2026-04-24 21:26 52.95280 69.32171 34899 ft 484 kts 54°
2026-04-24 21:27 52.99100 69.41385 34899 ft 484 kts 54°
2026-04-24 21:27 53.02870 69.50513 34901 ft 484 kts 54°
2026-04-24 21:28 53.06680 69.59772 34903 ft 484 kts 54°
2026-04-24 21:28 53.10482 69.69042 34899 ft 484 kts 54°
2026-04-24 21:29 53.14272 69.78319 34899 ft 484 kts 54°
2026-04-24 21:29 53.18052 69.87605 34904 ft 484 kts 54°
2026-04-24 21:30 53.21806 69.96862 34899 ft 484 kts 55°
2026-04-24 21:30 53.25574 70.06188 34899 ft 484 kts 55°
2026-04-24 21:31 53.29329 70.15516 34899 ft 483 kts 55°
2026-04-24 21:31 53.33080 70.24867 34898 ft 483 kts 55°
2026-04-24 21:32 53.36793 70.34159 34894 ft 483 kts 55°
2026-04-24 21:32 53.40529 70.43543 34902 ft 483 kts 55°
2026-04-24 21:33 53.44253 70.52931 34899 ft 483 kts 55°
2026-04-24 21:33 53.47968 70.62332 34906 ft 483 kts 55°
2026-04-24 21:34 53.51673 70.71743 34901 ft 483 kts 55°
2026-04-24 21:34 53.55349 70.81114 34905 ft 483 kts 55°
2026-04-24 21:35 53.59043 70.90568 34907 ft 483 kts 55°
2026-04-24 21:35 53.62732 71.00042 34908 ft 483 kts 55°
2026-04-24 21:36 53.66410 71.09528 34913 ft 483 kts 55°
2026-04-24 21:36 53.70080 71.19027 34910 ft 483 kts 55°
2026-04-24 21:37 53.73740 71.28536 34910 ft 483 kts 55°
2026-04-24 21:37 53.77370 71.38004 34913 ft 483 kts 55°
2026-04-24 21:38 53.81013 71.47540 34916 ft 482 kts 55°
2026-04-24 21:38 53.84649 71.57095 34917 ft 482 kts 56°
2026-04-24 21:39 53.88276 71.66662 34919 ft 482 kts 56°
2026-04-24 21:39 53.91891 71.76236 34922 ft 482 kts 56°
2026-04-24 21:40 53.95477 71.85769 34920 ft 482 kts 56°
2026-04-24 21:40 53.99076 71.95374 34924 ft 481 kts 56°
2026-04-24 21:41 54.02668 72.04995 34926 ft 481 kts 56°
2026-04-24 21:41 54.04458 72.09805 34785 ft 484 kts 56°
2026-04-24 21:41 54.06277 72.14698 34082 ft 491 kts 56°
2026-04-24 21:41 54.08089 72.19588 33412 ft 485 kts 56°
2026-04-24 21:42 54.09887 72.24446 32328 ft 490 kts 56°
2026-04-24 21:42 54.11703 72.29361 31477 ft 490 kts 57°
2026-04-24 21:42 54.13527 72.34282 30581 ft 492 kts 55°
2026-04-24 21:42 54.15631 72.38898 29610 ft 493 kts 46°
2026-04-24 21:43 54.18092 72.42973 28573 ft 492 kts 38°
2026-04-24 21:43 54.20869 72.46379 27598 ft 491 kts 31°
2026-04-24 21:43 54.23758 72.49494 26607 ft 491 kts 30°
2026-04-24 21:43 54.26646 72.52554 25975 ft 485 kts 30°
2026-04-24 21:44 54.29497 72.55593 25250 ft 481 kts 30°
2026-04-24 21:44 54.32322 72.58643 24542 ft 478 kts 30°
2026-04-24 21:44 54.35116 72.61695 23880 ft 474 kts 30°
2026-04-24 21:44 54.37885 72.64746 23130 ft 472 kts 31°
2026-04-24 21:45 54.40599 72.67750 22381 ft 468 kts 31°
2026-04-24 21:45 54.43327 72.70777 21702 ft 463 kts 31°
2026-04-24 21:45 54.46023 72.73772 21011 ft 459 kts 30°
2026-04-24 21:45 54.48694 72.76742 20342 ft 455 kts 30°
2026-04-24 21:46 54.51346 72.79693 19686 ft 452 kts 30°
2026-04-24 21:46 54.53973 72.82621 19044 ft 448 kts 30°
2026-04-24 21:46 54.56585 72.85535 18407 ft 445 kts 30°
2026-04-24 21:46 54.59095 72.88339 17711 ft 443 kts 30°
2026-04-24 21:47 54.61570 72.90784 17041 ft 436 kts 19°
2026-04-24 21:47 54.63322 72.91720 16645 ft 428 kts
2026-04-24 21:47 54.67191 72.93007 15817 ft 421 kts
2026-04-24 21:47 54.70021 72.93967 15194 ft 418 kts
2026-04-24 21:48 54.72866 72.94961 14569 ft 415 kts
2026-04-24 21:48 54.75690 72.95970 13947 ft 413 kts
2026-04-24 21:48 54.78494 72.96987 13286 ft 410 kts
2026-04-24 21:48 54.81276 72.98003 12630 ft 407 kts
2026-04-24 21:49 54.84035 72.99014 12016 ft 403 kts
2026-04-24 21:49 54.86764 73.00016 11409 ft 398 kts
2026-04-24 21:49 54.89461 73.01007 10821 ft 394 kts
2026-04-24 21:49 54.92066 73.01967 10657 ft 379 kts
2026-04-24 21:50 54.94584 73.02899 10484 ft 360 kts
2026-04-24 21:50 54.96968 73.03781 10329 ft 340 kts
2026-04-24 21:50 54.99222 73.04612 10191 ft 322 kts
2026-04-24 21:50 55.01354 73.05398 10063 ft 306 kts
2026-04-24 21:51 55.03390 73.06150 9954 ft 292 kts
2026-04-24 21:51 55.05360 73.06876 9619 ft 291 kts
2026-04-24 21:51 55.07361 73.07625 9134 ft 296 kts 11°
2026-04-24 21:51 55.09206 73.09252 8719 ft 304 kts 40°
2026-04-24 21:52 55.10467 73.12192 8385 ft 304 kts 65°
2026-04-24 21:52 55.11275 73.15594 8070 ft 302 kts 69°
2026-04-24 21:52 55.12029 73.19028 7727 ft 302 kts 69°
2026-04-24 21:52 55.12784 73.22442 7405 ft 301 kts 69°
2026-04-24 21:53 55.13549 73.25836 7083 ft 299 kts 69°
2026-04-24 21:53 55.14317 73.29208 6779 ft 298 kts 69°
2026-04-24 21:53 55.15075 73.32526 6463 ft 297 kts 69°
2026-04-24 21:53 55.15553 73.35993 6118 ft 293 kts 93°
2026-04-24 21:54 55.15201 73.39419 5824 ft 283 kts 114°
2026-04-24 21:54 55.14518 73.42617 5610 ft 277 kts 116°
2026-04-24 21:54 55.13832 73.45749 5361 ft 273 kts 116°
2026-04-24 21:54 55.13163 73.48837 5085 ft 271 kts 116°
2026-04-24 21:55 55.12501 73.51916 4808 ft 269 kts 116°
2026-04-24 21:55 55.11857 73.54926 4541 ft 266 kts 116°
2026-04-24 21:55 55.11235 73.57837 4290 ft 264 kts 116°
2026-04-24 21:55 55.10345 73.60524 3988 ft 250 kts 141°
2026-04-24 21:56 55.08914 73.62034 3721 ft 236 kts 168°
2026-04-24 21:56 55.07324 73.62377 3422 ft 228 kts 187°
2026-04-24 21:56 55.05775 73.61815 3106 ft 226 kts 197°
2026-04-24 21:56 55.04275 73.61001 2779 ft 226 kts 198°
2026-04-24 21:57 55.02775 73.60169 2458 ft 226 kts 197°
2026-04-24 21:57 55.01314 73.59311 2460 ft 219 kts 205°
2026-04-24 21:57 55.00294 73.57488 2463 ft 210 kts 243°
2026-04-24 21:57 54.99972 73.55153 2465 ft 190 kts 251°
2026-04-24 21:58 54.99688 73.53042 2448 ft 169 kts 249°
2026-04-24 21:58 54.99412 73.51067 2407 ft 168 kts 249°
2026-04-24 21:58 54.99148 73.49126 2242 ft 157 kts 249°
2026-04-24 21:58 54.98908 73.47341 2019 ft 146 kts 248°
2026-04-24 21:59 54.98676 73.45637 1814 ft 144 kts 248°
2026-04-24 21:59 54.98442 73.43914 1629 ft 148 kts 249°
2026-04-24 21:59 54.98209 73.42180 1419 ft 147 kts 250°
2026-04-24 21:59 54.97975 73.40451 1208 ft 146 kts 252°
2026-04-24 22:00 54.97741 73.38722 992 ft 147 kts 254°
2026-04-24 22:00 54.97506 73.36981 801 ft 148 kts 255°
2026-04-24 22:00 54.97277 73.35250 588 ft 147 kts 256°
2026-04-24 22:00 54.97047 73.33541 411 ft 144 kts 255°
2026-04-24 22:01 54.96832 73.31868 308 ft 134 kts 256°
2026-04-24 22:01 54.96650 73.30548 311 ft 90 kts 256°
2026-04-24 22:01 54.96542 73.29742 315 ft 46 kts 257°
2026-04-24 22:01 54.96496 73.29396 321 ft 23 kts 257°
2026-04-24 22:02 54.96455 73.29166 320 ft 14 kts 220°
2026-04-24 22:02 54.96356 73.29176 316 ft 14 kts 168°
2026-04-24 22:02 54.96283 73.29207 315 ft 4 kts 167°
2026-04-24 22:02 54.96258 73.29216 315 ft 4 kts 168°
2026-04-24 22:03 54.96234 73.29226 315 ft 4 kts 166°
2026-04-24 22:03 54.96210 73.29237 315 ft 4 kts 165°
2026-04-24 22:03 54.96173 73.29252 314 ft 7 kts 167°
2026-04-24 22:03 54.96110 73.29279 314 ft 11 kts 162°
2026-04-24 22:04 54.96086 73.29406 313 ft 14 kts 77°
2026-04-24 22:04 54.96111 73.29601 310 ft 19 kts 76°
2026-04-24 22:04 54.96143 73.29838 309 ft 22 kts 77°
2026-04-24 22:04 54.96171 73.30044 304 ft 16 kts 77°
2026-04-24 22:05 54.96199 73.30249 304 ft 19 kts 76°
2026-04-24 22:05 54.96229 73.30483 305 ft 21 kts 77°
2026-04-24 22:05 54.96263 73.30727 302 ft 23 kts 77°
2026-04-24 22:05 54.96301 73.31015 300 ft 25 kts 77°
2026-04-24 22:06 54.96339 73.31300 299 ft 23 kts 77°
2026-04-24 22:06 54.96368 73.31518 298 ft 8 kts 77°
2026-04-24 22:06 54.96371 73.31622 300 ft 9 kts 110°
2026-04-24 22:06 54.96326 73.31694 297 ft 9 kts 136°
2026-04-24 22:07 54.96293 73.31765 298 ft 5 kts 107°
2026-04-24 22:07 54.96305 73.31822 300 ft 5 kts 48°
2026-04-24 22:07 54.96329 73.31868 297 ft 5 kts 47°
2026-04-24 22:07 54.96352 73.31914 298 ft 5 kts 60°
2026-04-24 22:08 54.96347 73.31969 299 ft 4 kts 128°
2026-04-24 22:08 54.96333 73.31992 299 ft 1 kts 136°
2026-04-24 22:08 54.96331 73.31994 299 ft 0 kts 136°